{"data":{"norad_id":53701,"epoch":"2026-05-25T00:35:23.752608Z","epoch_age_seconds":68772,"freshness":"FRESH","line1":"1 53701U 22107B   26145.02458047  .00001629  00000+0  12045-3 0  9998","line2":"2 53701  53.2130 261.0274 0001421  91.3513 268.7642 15.08829142206388","mean_motion":15.08829142,"eccentricity":0.0001421,"inclination_deg":53.213,"raan_deg":261.0274,"arg_perigee_deg":91.3513,"mean_anomaly_deg":268.7642,"bstar":0.00012045,"rev_number":20638,"period_min":95.438241475853,"perigee_km":538.79354220593,"apogee_km":540.75961324472,"semimajor_km":6917.9135777253,"source":"CELESTRAK","updated_at":"2026-05-25T13:38:17.531683Z"}}